TimeHST,TemperatureF,Dew PointF,Humidity,Sea Level PressureIn,VisibilityMPH,Wind Direction,Wind SpeedMPH,Gust SpeedMPH,PrecipitationIn,Events,Conditions,WindDirDegrees,DateUTC
12:56 AM,78.1,69.1,74,29.97,10.0,North,8.1,-,N/A,,Partly Cloudy,350,2013-07-26 10:56:00
1:56 AM,73.9,66.9,79,29.97,10.0,ESE,3.5,-,N/A,,Clear,120,2013-07-26 11:56:00
2:56 AM,73.9,64.9,73,29.97,10.0,ESE,3.5,-,N/A,,Clear,120,2013-07-26 12:56:00
3:56 AM,73.0,64.0,73,29.96,10.0,ESE,4.6,-,N/A,,Clear,120,2013-07-26 13:56:00
4:56 AM,72.0,64.0,76,29.96,10.0,East,5.8,-,N/A,,Clear,100,2013-07-26 14:56:00
5:56 AM,72.0,61.0,68,29.97,10.0,Calm,Calm,-,N/A,,Clear,0,2013-07-26 15:56:00
6:56 AM,73.0,62.1,68,29.98,10.0,Calm,Calm,-,N/A,,Clear,0,2013-07-26 16:56:00
7:56 AM,80.1,64.9,60,29.99,10.0,ENE,3.5,-,N/A,,Clear,60,2013-07-26 17:56:00
8:56 AM,80.1,66.0,62,30.00,10.0,NNW,6.9,-,N/A,,Clear,330,2013-07-26 18:56:00
9:56 AM,82.0,68.0,62,30.02,10.0,NNW,9.2,-,N/A,,Clear,330,2013-07-26 19:56:00
10:56 AM,82.9,66.9,58,30.01,10.0,WNW,6.9,-,N/A,,Clear,290,2013-07-26 20:56:00
11:56 AM,82.0,66.0,58,30.02,10.0,West,8.1,-,N/A,,Scattered Clouds,260,2013-07-26 21:56:00
12:56 PM,84.9,68.0,57,30.01,10.0,SSW,12.7,-,N/A,,Clear,210,2013-07-26 22:56:00
1:56 PM,82.9,68.0,60,30.00,10.0,WNW,8.1,-,N/A,,Overcast,290,2013-07-26 23:56:00
2:56 PM,86.0,70.0,59,30.00,10.0,NNW,13.8,-,N/A,,Clear,330,2013-07-27 00:56:00
3:56 PM,84.0,68.0,58,30.00,10.0,NW,10.4,-,N/A,,Clear,320,2013-07-27 01:56:00
4:56 PM,82.9,68.0,60,29.99,10.0,NW,9.2,-,N/A,,Clear,320,2013-07-27 02:56:00
5:56 PM,81.0,68.0,65,29.99,10.0,SW,4.6,-,N/A,,Clear,220,2013-07-27 03:56:00
6:56 PM,81.0,66.0,60,30.00,10.0,South,8.1,-,N/A,,Clear,180,2013-07-27 04:56:00
7:56 PM,80.1,69.1,69,30.01,10.0,South,4.6,-,N/A,,Clear,180,2013-07-27 05:56:00
8:56 PM,79.0,68.0,69,30.03,10.0,NNE,5.8,-,N/A,,Mostly Cloudy,30,2013-07-27 06:56:00
9:56 PM,77.0,64.9,66,30.04,10.0,SE,4.6,-,N/A,,Clear,140,2013-07-27 07:56:00
10:56 PM,75.0,64.0,69,30.05,10.0,Calm,Calm,-,N/A,,Clear,0,2013-07-27 08:56:00
11:56 PM,73.9,63.0,68,30.04,10.0,ENE,3.5,-,N/A,,Clear,70,2013-07-27 09:56:00